GEFSMW_con_prob3kmehi_108.txt.gz
EHI
60 56 51 47 45 45 45 41 35 29 26 27 25 22 18 13 6 3 3 3 3 2 1 0 0 0 0 0 0 0 0 0 0 0 0 0 0 0 0 0 0 0 0
62 58 52 47 45 44 41 36 31 27 25 24 22 18 16 11 6 3 3 3 3 2 1 0 0 0 0 0 0 0 0 0 0 0 0 0 0 0 0 0 0 0 0
60 56 50 44 41 39 34 29 27 25 23 21 17 14 12 9 6 4 4 3 3 3 1 0 0 0 0 0 0 0 0 0 0 0 0 0 0 0 0 0 0 0 0
54 52 46 40 36 33 29 25 24 23 22 20 16 13 11 8 5 5 5 5 5 4 2 1 0 0 0 0 0 0 0 0 0 0 0 0 0 0 0 0 0 0 0
49 49 45 38 33 30 27 23 20 19 18 17 14 12 10 7 4 4 5 7 6 5 3 2 1 0 0 0 0 0 0 0 0 0 0 0 0 0 0 0 0 0 0
44 44 41 36 32 29 26 21 17 15 14 13 11 9 7 6 4 3 5 6 5 3 3 2 1 0 0 0 0 0 0 0 0 0 0 0 0 0 0 0 0 0 0
38 37 34 31 29 28 25 21 15 12 11 9 8 7 6 5 4 4 5 5 3 1 1 2 1 0 0 0 0 0 0 0 0 0 0 0 0 0 0 0 0 0 0
32 33 30 26 25 24 22 19 14 11 9 8 6 6 6 5 4 4 5 4 1 0 1 1 1 0 0 0 0 0 0 0 0 0 0 0 0 0 0 0 0 0 0
26 28 27 23 20 19 18 17 14 11 9 7 6 6 5 4 4 4 3 2 0 0 0 0 0 0 0 0 0 0 0 0 0 0 0 0 0 0 0 0 0 0 0
23 23 21 18 15 13 14 15 14 13 10 8 7 6 5 4 4 3 2 1 0 0 0 0 0 0 0 0 0 0 0 0 0 0 0 0 0 0 0 0 0 0 0
18 18 16 13 11 10 11 12 13 13 11 9 7 7 6 4 3 3 1 0 0 0 0 0 0 0 0 0 0 0 0 0 0 0 0 0 0 0 0 0 0 0 0
13 14 13 10 9 9 10 12 12 12 11 9 7 6 6 4 3 2 1 0 0 0 0 0 0 0 0 0 0 0 0 0 0 0 0 0 0 0 0 0 0 0 0
12 13 13 10 8 8 9 12 13 12 10 9 7 6 4 4 3 2 0 0 0 0 0 0 0 0 0 0 0 0 0 0 0 0 0 0 0 0 0 0 0 0 0
13 15 15 12 10 8 8 10 11 11 10 8 7 5 4 4 3 2 1 0 0 0 0 0 0 0 0 0 0 0 0 0 0 0 0 0 0 0 0 0 0 0 0
13 15 16 15 13 11 10 10 9 9 8 7 6 5 4 4 4 3 2 1 0 0 0 0 0 0 0 0 0 0 0 0 0 0 0 0 0 0 0 0 0 0 0
14 14 15 14 14 14 13 10 8 6 6 6 6 5 5 4 3 3 3 1 0 0 0 0 0 0 0 0 0 0 0 0 0 0 0 0 0 0 0 0 0 0 0
18 15 12 12 12 12 13 11 8 5 4 5 6 6 5 4 4 3 3 2 1 0 0 0 0 0 0 0 0 0 0 0 0 0 0 0 0 0 0 0 0 0 0
22 16 12 12 12 11 12 11 9 6 5 5 7 7 6 5 4 4 3 2 1 0 0 0 0 0 0 0 0 0 0 0 0 0 0 0 0 0 0 0 0 0 0
20 18 16 14 13 12 12 11 10 8 7 7 8 9 8 6 4 3 3 2 1 0 0 0 0 0 0 0 0 0 0 0 0 0 0 0 0 0 0 0 0 0 0
18 18 18 16 14 12 11 11 10 10 9 7 7 8 7 5 3 3 2 2 1 0 0 0 0 0 0 0 0 0 0 0 0 0 0 0 0 0 0 0 0 0 0
12 12 13 13 11 10 10 10 10 10 8 5 4 3 3 2 2 1 1 1 0 0 0 0 0 0 0 0 0 0 0 0 0 0 0 0 0 0 0 0 0 0 0
4 4 6 8 9 8 9 9 7 7 5 2 1 0 0 1 1 0 0 0 0 0 0 0 0 0 0 0 0 0 0 0 0 0 0 0 0 0 0 0 0 0 0
2 2 2 4 5 5 6 6 3 2 2 1 0 0 0 0 0 0 0 0 0 0 0 0 0 0 0 0 0 0 0 0 0 0 0 0 0 0 0 0 0 0 0
1 1 1 1 1 2 3 2 1 0 0 0 0 0 0 0 0 0 0 0 0 0 0 0 0 0 0 0 0 0 0 0 0 0 0 0 0 0 0 0 0 0 0
0 0 0 0 0 0 0 0 0 0 0 0 0 0 0 0 0 0 0 0 0 0 0 0 0 0 0 0 0 0 0 0 0 0 0 0 0 0 0 0 0 0 0
0 0 0 0 0 0 0 0 0 0 0 0 0 0 0 0 0 0 0 0 0 0 0 0 0 0 0 0 0 0 0 0 0 0 0 0 0 0 0 0 0 0 0

GEFSMW_con_prob3kmehi_114.txt.gz
EHI
20 27 39 46 43 34 27 24 20 15 10 7 5 3 1 0 0 0 1 1 1 0 0 0 0 0 0 0 0 0 0 0 0 0 0 0 0 0 0 0 0 0 0
23 28 39 44 41 34 28 23 20 17 13 9 6 3 1 0 0 0 0 0 0 0 0 0 0 0 0 0 0 0 0 0 0 0 0 0 0 0 0 0 0 0 0
25 29 37 41 40 34 28 24 22 19 14 10 7 3 1 1 1 1 0 0 1 2 1 0 0 0 0 0 0 0 0 0 0 0 0 0 0 0 0 0 0 0 0
28 29 32 36 36 32 26 24 24 20 14 10 6 4 3 2 2 2 1 0 1 2 1 0 0 0 0 0 0 0 0 0 0 0 0 0 0 0 0 0 0 0 0
26 26 25 26 27 24 21 21 22 19 13 9 6 3 3 3 3 3 1 0 0 1 1 1 0 0 0 0 0 0 0 0 0 0 0 0 0 0 0 0 0 0 0
19 19 18 17 17 16 16 17 17 16 12 9 5 3 3 3 3 3 2 1 1 1 1 2 1 0 0 0 0 0 0 0 0 0 0 0 0 0 0 0 0 0 0
15 15 14 12 12 13 13 13 13 12 10 7 4 2 3 3 3 3 3 2 2 1 1 1 1 0 0 0 0 0 0 0 0 0 0 0 0 0 0 0 0 0 0
14 15 13 10 11 12 10 9 9 8 6 4 2 2 2 2 2 2 2 2 2 1 1 1 0 0 0 0 0 0 0 0 0 0 0 0 0 0 0 0 0 0 0
11 13 11 9 9 8 6 6 6 5 4 3 3 2 2 1 1 1 0 1 1 1 1 1 0 0 0 0 0 0 0 0 0 0 0 0 0 0 0 0 0 0 0
10 11 10 8 6 4 3 4 5 6 5 5 4 3 3 1 0 0 0 0 0 0 0 0 0 0 0 0 0 0 0 0 0 0 0 0 0 0 0 0 0 0 0
8 9 8 6 4 3 3 4 5 6 6 4 3 3 3 2 0 0 0 0 0 0 0 0 0 0 0 0 0 0 0 0 0 0 0 0 0 0 0 0 0 0 0
4 4 5 4 3 3 4 4 4 5 5 3 2 2 2 2 0 0 0 0 0 0 0 0 0 0 0 0 0 0 0 0 0 0 0 0 0 0 0 0 0 0 0
1 1 3 3 3 3 4 3 3 4 3 1 1 1 2 2 1 1 0 0 0 0 0 0 0 0 0 0 0 0 0 0 0 0 0 0 0 0 0 0 0 0 0
0 1 2 2 2 2 3 3 3 3 1 0 0 0 1 2 3 2 1 1 0 0 0 0 0 0 0 0 0 0 0 0 0 0 0 0 0 0 0 0 0 0 0
0 0 1 1 1 1 2 2 3 2 1 0 0 0 1 2 3 3 3 2 1 0 0 0 0 0 0 0 0 0 0 0 0 0 0 0 0 0 0 0 0 0 0
0 0 0 0 0 1 2 2 3 2 1 0 0 0 1 2 3 3 3 3 1 0 0 0 0 0 0 0 0 0 0 0 0 0 0 0 0 0 0 0 0 0 0
1 0 0 0 0 2 4 4 3 2 1 0 0 0 0 1 2 3 3 3 2 1 0 0 0 0 0 0 0 0 0 0 0 0 0 0 0 0 0 0 0 0 0
3 2 1 1 1 2 4 4 3 2 1 0 0 0 0 0 1 2 3 3 3 2 1 0 0 0 0 0 0 0 0 0 0 0 0 0 0 0 0 0 0 0 0
3 2 2 2 2 2 3 3 2 1 0 0 0 0 0 0 0 1 2 3 3 3 1 0 0 0 0 0 0 0 0 0 0 0 0 0 0 0 0 0 0 0 0
2 2 1 1 1 1 2 2 1 0 0 0 0 0 0 0 0 0 1 3 3 2 1 0 0 0 0 0 0 0 0 0 0 0 0 0 0 0 0 0 0 0 0
2 2 1 0 0 1 2 2 1 0 0 0 0 0 0 0 0 0 1 2 2 1 1 0 0 0 0 0 0 0 0 0 0 0 0 0 0 0 0 0 0 0 0
1 1 1 0 0 1 2 2 1 0 0 0 0 0 0 0 0 0 0 1 1 0 0 0 0 0 0 0 0 0 0 0 0 0 0 0 0 0 0 0 0 0 0
0 0 0 0 0 0 1 1 1 0 0 0 0 0 0 0 0 0 0 0 0 0 0 0 0 0 0 0 0 0 0 0 0 0 0 0 0 0 0 0 0 0 0
0 0 0 0 0 0 0 0 0 0 0 0 0 0 0 0 0 0 0 0 0 0 0 0 0 0 0 0 0 0 0 0 0 0 0 0 0 0 0 0 0 0 0
0 0 0 0 0 0 0 0 0 0 0 0 0 0 0 0 0 0 0 0 0 0 0 0 0 0 0 0 0 0 0 0 0 0 0 0 0 0 0 0 0 0 0
0 0 0 0 0 0 0 0 0 0 0 0 0 0 0 0 0 0 0 0 0 0 0 0 0 0 0 0 0 0 0 0 0 0 0 0 0 0 0 0 0 0 0

GEFSMW_con_prob3kmehi_120.txt.gz
EHI
49 52 54 53 51 50 49 48 45 38 32 28 23 16 11 10 9 5 3 2 1 0 0 0 0 0 1 0 0 0 0 0 0 0 0 0 0 0 0 0 0 0 0
50 53 55 53 51 49 46 43 40 36 31 26 20 15 12 11 7 5 5 5 3 1 0 0 0 1 1 1 0 0 0 0 0 0 0 0 0 0 0 0 0 0 0
49 53 54 52 49 47 42 36 35 34 30 24 17 13 10 8 5 4 6 6 3 2 1 1 1 1 2 1 0 0 0 1 1 0 0 0 0 0 0 0 0 0 0
45 50 53 49 45 40 36 32 31 31 28 24 18 13 10 6 4 4 5 4 3 2 2 3 3 3 2 2 1 2 2 2 2 1 1 0 0 0 0 0 0 0 0
42 46 47 45 40 34 29 28 28 28 26 23 20 17 13 9 5 5 6 4 3 3 4 5 5 4 3 3 3 3 3 3 4 3 2 1 0 0 0 0 0 0 0
38 40 40 38 36 32 27 25 25 25 23 21 19 17 15 11 7 7 8 6 5 4 4 5 5 3 2 3 5 6 5 4 4 4 3 1 0 0 0 0 0 0 0
30 32 34 34 32 31 27 24 24 24 22 19 17 15 13 11 9 9 9 9 7 5 4 4 5 4 2 3 5 7 5 4 3 4 4 3 2 1 1 0 0 0 0
23 26 30 31 29 27 25 24 23 23 20 17 15 12 10 9 9 10 10 9 8 5 3 3 3 4 4 3 4 5 5 4 3 3 4 5 4 2 1 1 0 0 0
19 21 26 28 27 24 22 21 22 21 17 13 12 9 7 7 8 8 8 7 6 4 2 2 1 2 3 3 4 5 5 4 4 4 4 6 5 3 2 2 1 0 1
15 19 25 27 25 23 20 19 19 17 13 10 8 6 4 4 5 4 3 4 4 2 0 1 1 0 1 2 5 7 6 4 4 4 4 4 3 3 3 3 1 1 1
15 20 25 25 23 20 18 16 15 12 8 6 5 4 2 2 2 1 1 2 3 1 0 1 1 0 0 1 4 6 5 4 3 3 2 1 1 2 3 3 3 2 2
19 22 23 22 18 16 14 12 11 9 6 5 4 3 3 2 2 1 1 3 3 3 2 2 1 1 1 2 4 4 4 3 1 1 1 0 0 1 2 2 3 3 2
24 23 21 18 15 13 11 11 10 9 8 7 6 4 3 3 3 3 3 3 4 4 5 4 3 2 2 3 4 4 3 2 1 0 0 0 0 0 1 1 2 2 2
25 21 17 16 15 13 12 11 11 10 10 9 7 5 4 3 3 3 3 3 3 4 5 5 3 1 1 2 4 4 2 1 0 0 0 0 0 0 0 0 0 1 1
22 18 15 15 15 14 12 11 11 10 10 9 7 5 4 3 3 3 4 4 4 4 5 5 3 1 0 1 3 4 3 2 1 0 0 0 0 0 0 0 0 0 0
21 19 17 16 15 14 12 11 10 9 8 6 4 4 4 3 3 4 5 5 6 6 6 6 5 3 1 1 1 2 3 3 2 1 0 0 0 0 0 0 0 0 0
21 20 19 19 17 14 11 10 10 9 8 6 5 5 4 4 5 5 6 7 7 7 7 7 6 4 2 1 0 1 1 2 3 2 0 0 0 0 0 0 0 0 0
20 19 18 18 17 15 12 11 13 13 10 8 8 9 8 7 8 8 8 8 7 5 4 4 4 4 3 1 0 0 0 1 2 1 0 0 0 0 0 0 0 0 0
23 20 16 13 15 16 16 15 17 17 13 10 10 11 10 10 10 9 8 7 5 3 2 2 3 3 2 1 0 0 0 0 0 0 0 0 0 0 0 0 0 0 0
23 20 13 11 14 17 16 17 18 18 15 11 11 11 10 10 10 9 7 4 2 1 1 2 2 2 2 1 0 0 0 0 0 0 0 0 0 0 0 0 0 0 0
15 14 11 11 14 17 16 15 16 16 15 14 12 12 11 10 10 9 5 2 0 0 0 1 1 1 1 0 0 0 0 0 0 0 0 0 0 0 0 0 0 0 0
7 8 10 12 15 16 15 14 15 15 15 15 14 13 11 9 8 6 3 1 0 0 0 0 0 0 0 0 0 0 0 0 0 0 0 0 0 0 0 0 0 0 0
4 5 7 10 12 13 12 14 15 15 14 14 13 12 9 5 3 2 1 0 0 0 0 0 0 0 0 0 0 0 0 0 0 0 0 0 0 0 0 0 0 0 0
2 3 4 5 7 8 9 11 12 11 10 11 11 9 5 2 0 0 0 0 0 0 0 0 0 0 0 0 0 0 0 0 0 0 0 0 0 0 0 0 0 0 0
1 1 2 3 3 4 5 5 5 5 5 6 6 4 2 1 0 0 0 0 0 0 0 0 0 0 0 0 0 0 0 0 0 0 0 0 0 0 0 0 0 0 0
0 0 1 1 2 2 2 1 1 1 1 2 2 1 1 0 0 0 0 0 0 0 0 0 0 0 0 0 0 0 0 0 0 0 0 0 0 0 0 0 0 0 0

GEFSMW_con_prob3kmehi_126.txt.gz
EHI
83 85 88 89 89 87 82 77 73 68 58 51 48 45 42 42 40 41 44 39 31 26 20 20 24 21 17 14 9 6 4 3 2 1 1 0 4 10 12 11 8 6 6
82 84 87 87 86 84 80 75 72 69 61 53 47 42 39 37 33 36 42 38 31 26 21 23 24 22 19 16 14 10 6 4 2 3 3 1 2 5 8 11 10 9 10
79 82 83 82 81 80 78 74 70 67 64 56 46 38 34 30 26 31 39 37 31 27 25 25 27 26 22 17 15 12 9 6 4 4 5 3 2 2 5 8 9 11 12
75 78 78 76 75 76 76 73 69 66 63 59 50 39 32 26 23 27 36 37 31 28 28 27 29 29 24 17 13 12 11 7 4 4 5 5 3 1 2 4 5 7 9
70 74 74 71 71 71 71 71 70 68 63 59 54 44 34 26 22 25 32 35 31 27 26 29 31 30 24 17 15 16 14 8 4 3 4 5 3 1 1 1 2 3 4
66 69 69 68 68 67 66 67 68 68 63 58 52 45 38 30 25 25 26 27 26 23 22 26 31 29 23 20 19 19 15 10 7 4 4 4 3 2 2 1 1 2 3
60 64 65 64 66 66 64 64 63 63 61 56 49 43 39 33 27 25 21 18 17 17 19 25 30 26 21 21 22 19 15 12 9 6 5 4 3 3 3 3 2 3 3
54 58 60 60 61 62 61 60 59 58 57 54 47 40 36 29 25 23 18 13 12 13 21 30 31 24 17 18 22 20 15 14 11 7 6 6 5 4 3 4 3 3 2
49 53 57 56 54 55 56 55 54 53 52 49 42 36 32 27 25 22 16 12 11 14 24 33 33 26 18 16 18 18 16 16 16 13 10 8 6 4 3 3 4 3 2
47 52 56 54 50 49 49 47 46 46 46 43 37 30 27 27 26 23 17 12 12 18 26 30 29 25 20 16 14 13 14 16 17 16 11 7 6 6 4 4 5 5 4
50 53 55 52 46 43 41 39 37 36 38 38 33 26 23 23 23 20 16 14 16 21 25 27 25 21 16 13 11 9 9 11 12 10 6 4 6 9 7 5 6 6 5
51 54 54 49 43 38 35 33 30 29 30 32 31 28 25 23 21 18 17 17 19 21 22 23 22 18 13 11 10 8 6 6 6 4 2 1 4 7 7 6 6 5 4
50 53 54 49 43 39 34 30 27 26 26 27 29 30 28 25 22 19 18 18 20 21 20 19 19 16 12 10 9 7 7 6 5 3 1 1 2 3 4 4 4 2 1
51 55 57 53 48 43 37 31 28 27 26 26 26 27 27 25 22 21 20 19 19 19 17 16 15 14 12 10 9 8 8 7 6 4 3 2 3 3 2 2 1 0 0
51 55 58 58 54 47 40 36 33 29 26 23 21 21 23 22 21 20 20 19 18 16 13 12 12 12 9 9 9 8 7 6 4 4 3 3 3 2 1 0 0 0 0
52 55 59 60 56 46 40 38 35 29 24 20 17 16 17 18 19 19 20 20 17 13 10 9 9 7 5 5 6 6 5 4 3 3 3 3 1 1 0 0 0 0 0
57 59 63 63 55 44 36 34 32 28 23 19 17 17 16 17 18 17 17 17 14 11 9 8 8 6 3 1 1 2 3 3 3 3 3 2 1 0 0 0 0 0 0
61 62 62 59 52 41 33 30 30 28 24 21 20 20 20 19 18 16 14 13 12 11 10 9 8 5 2 0 0 0 1 1 2 2 2 2 1 0 0 0 0 0 0
59 57 54 51 46 39 33 31 31 30 25 23 23 22 21 20 19 17 14 12 14 14 12 10 7 4 1 0 0 0 0 0 1 1 1 1 0 0 0 0 0 0 0
51 49 47 44 41 38 34 32 31 29 26 25 25 24 22 21 20 19 16 14 15 15 11 8 4 2 1 0 0 0 0 0 0 0 0 0 0 0 0 0 0 0 0
42 43 43 41 38 35 33 31 30 30 29 27 26 23 20 18 17 18 15 13 12 11 7 3 1 1 0 0 0 0 0 0 0 0 0 0 0 0 0 0 0 0 0
35 36 37 36 35 32 29 28 29 31 31 28 23 19 16 13 13 13 11 9 8 6 2 0 0 0 0 0 0 0 0 0 0 0 0 0 0 0 0 0 0 0 0
26 26 28 29 28 26 23 23 26 28 27 24 21 17 13 11 10 9 6 4 3 2 0 0 0 0 0 0 0 0 0 0 0 0 0 0 0 0 0 0 0 0 0
16 17 19 21 20 19 18 18 19 20 19 19 18 16 13 10 8 5 2 1 1 0 0 0 0 0 0 0 0 0 0 0 0 0 0 0 0 0 0 0 0 0 0
10 10 11 13 13 13 14 13 12 12 13 14 13 13 11 7 3 1 0 0 0 0 0 0 0 0 0 0 0 0 0 0 0 0 0 0 0 0 0 0 0 0 0
9 8 8 8 8 9 11 11 8 8 10 11 9 8 8 5 1 0 0 0 0 0 0 0 0 0 0 0 0 0 0 0 0 0 0 0 0 0 0 0 0 0 0